Regional Weather Roundup
Issued by NWS Binghamton, NY

Home | Current Version | Previous Version | Text Only | Print | Product List | Glossary On
Versions: 1 2 3 4 5 6 7 8 9 10 11 12 13 14 15 16 17 18 19 20 21 22 23 24 25 26 27 28 29 30 31 32 33 34 35 36 37 38 39 40 41 42 43 44 45 46 47 48 49 50
230
ASUS41 KBGM 291010
RWRBGM

REGIONAL WEATHER ROUNDUP
NATIONAL WEATHER SERVICE BINGHAMTON NY
600 AM EDT FRI APR 29 2016

Note: "fair" indicates few or no clouds below 12,000 feet with no
significant weather and/or obstructions to visibility.

* = Station(s) that does not report precipitation, such as rain,
snow, etc, also no thunder or fog.

NYZ009-015>018-022>025-036-037-044>046-055>057-062-291100
...Central New York...

CITY           SKY/WX    TMP DP  RH WIND       PRES   REMARKS
Binghamton     CLOUDY    41  33  73 E6        30.01R
Cortland       CLOUDY    41  36  81 SW3       30.03R
Dansville      CLOUDY    42  34  73 CALM      30.05R
Elmira         CLOUDY    43  33  68 E3        30.03R
Ithaca         CLOUDY    39  37  92 CALM      30.04R
Hamilton       MOCLDY    41  34  75 CALM      30.04S
Hornell        CLOUDY    41  34  75 CALM      30.06S
Monticello     CLOUDY    41  36  81 E7        30.06R
Norwich        CLOUDY    43  25  49 NE3       30.05R
Penn Yan       LGT RAIN  41  34  76 CALM      30.04R
Rome           CLOUDY    37  26  64 E5        30.09R WCI  33
Sidney         CLOUDY    43  30  61 E3        30.04R
Syracuse       CLOUDY    39  28  64 NE3       30.05R
$$

PAZ038>040-043-044-047-048-072-291100
...Northeast Pennsylvania...

CITY           SKY/WX    TMP DP  RH WIND       PRES   REMARKS
Hazleton       CLOUDY    43  37  81 CALM      30.04S
Scranton       CLOUDY    47  43  86 CALM      30.03R
$$
&&
KEY
WCI = Wind Chill Index
VSB = Visibility
HX  = Heat Index
$$




USA.gov is the U.S. government's official web portal to all federal, state and local government web resources and services.